FENGYUN 1C DEB, 31274

Orbit data source: Space-Track

FENGYUN 1C DEB, 31274 is space debris in SSO originally from a launch on Mon, 10 May 1999 UTC launched from the Taiyaun Space Center, China (TSC). Fengyun 1C debris stems from the Chinese weather satellite Fengyun-1C, which was intentionally destroyed by a Chinese anti-satellite missile in 2007. This event dramatically increased the amount of space debris, with thousands of trackable fragments posing hazards to satellites and human spaceflight. The Fengyun 1C debris cloud has become a focal point in discussions about space sustainability and the need for international regulations to prevent the creation of new debris.

Loading next visibility...
Identifier
31274, 1999-025BNG
Orbit
SSO
Country
Flag of CNCN / PRC
Related business
Manufacturer
Unknown
Mission
Spacecraft
Bus & Motor
Unknown
Mass
Unknown
Launch date (UTC)
1999-05-10 (27 years ago)
Launch vehicle
Unknown
Launch site
Taiyaun Space Center, China (TSC)
Object type
Payload
Rocket body
Debris
Shape & HBR
Unknown shape, 0.1 m
Radar Cross Section
Medium (>0.1 m² and <1 m²)

Expand to show TLE details & history
Last TLE update: 19 hours ago

TLE from 19 hours ago
0 FENGYUN 1C DEB
1 31274U 99025BNG 26253.28627447  .00000471  00000-0  35363-3 0  9995
2 31274  99.0218  67.6695 0240514  96.6068 266.2526 13.86132334979680
Epoch: 2026-09-10T06:52Z
TLE epoch observation values (Epoch: 2026-09-10T06:52:14.114Z)
Latitude
0.00002°
Longitude
-24.71547°
Altitude
960.792 km
Speed
7.363 km/s
True Right ascension
04h 30m 40s
True Declination
0° 00' 00"
Sunlit
Object was in daylight at epoch
Visualization orbit readout
Latitude
Unknown
Longitude
Unknown
Altitude
Unknown
Speed
Unknown
Apparent Right ascension
Unknown
Apparent Declination
Unknown
Sunlit
N/A
Visualization observer readout
Local Sidereal Time
18:41:38
Azimuth
Unknown
Elevation
Unknown
Doppler factor
Unknown
Orbital elements
Apogee altitude
1,115.431 km
Perigee altitude
763.435 km
Semi-major axis
7,317.57 km
Eccentricity
0.02405
Inclination
99.0218°
RAAN
67.6695°
Arg. of periapsis
96.6068°
True anomaly
263.50885°
Mean anomaly
266.2526°
Eccentric anomaly
264.88005°
Mean motion
3.46731 °/min
Orbital period
103.83 mins
BSTAR
0.00035363
Loading maneuver chart data...
Computing Atmospheric mass density...

Documentation

Showing up to 5 results
|